Chicago Executive, IL

8:10 AM CST on December 06, 2019 (GMT -0600)
Chicago Executive

Weather History for KPWK - September, 2019

Change the Weather History Date:

Monday, September 2, 2019

  Actual Average Record
Temperature  
Mean Temperature 72 °F 70 °F  
Max Temperature 84 °F 79 °F 95 °F (2008)
Min Temperature 60 °F 60 °F 49 °F (2017)
Degree Days  
Heating Degree Days 0 1  
Month to date heating degree days 0 2  
Since 1 July heating degree days 0 12  
Cooling Degree Days 8 5  
Month to date cooling degree days 11 10  
Year to date cooling degree days 818 707  
Growing Degree Days 22 (Base 50)    
Moisture  
Dew Point 62 °F    
Average Humidity 71    
Maximum Humidity 90    
Minimum Humidity 46    
Precipitation  
Precipitation 0.00 in 0.11 in 1.47 in (2010)
Month to date precipitation 0.14 0.23  
Year to date precipitation 29.46 22.71  
Sea Level Pressure  
Sea Level Pressure 30.08 in    
Wind  
Wind Speed 3 mph ()    
Max Wind Speed 10 mph    
Max Gust Speed 18 mph    
Visibility 9.2 miles    
Events      
T = Trace of Precipitation, MM = Missing Value Source: Averaged Metar Reports

Daily Weather History Graph

Daily Weather History Graph

Search for Another Location

Airport or City:

Astronomy

Sep. 02, 2019 Rise Set
Actual Time 6:17 AM CDT 7:23 PM CDT
Civil Twilight 5:49 AM CDT 7:52 PM CDT
Nautical Twilight 5:14 AM CDT 8:26 PM CDT
Astronomical Twilight 4:38 AM CDT 9:02 PM CDT
Moon 10:03 AM CDT (9/2) 9:41 PM CDT (9/2)
Length of Visible Light 14h 03m
Length of Day
13h 06m
Waxing Crescent, 15% of the Moon is Illuminated
Sep 2
Waxing Crescent
Sep 5
First Quarter
Sep 13
Full
Sep 21
Last Quarter
Sep 28
New

Hourly Weather History & Observations

Time (CDT) Temp. Heat Index Dew Point Humidity Pressure Visibility Wind Dir Wind Speed Gust Speed Precip Events Conditions
12:52 AM 62.1 °F - 57.9 °F 86% 30.09 in 7.0 mi Calm Calm - N/A   Clear
1:52 AM 62.1 °F - 57.9 °F 86% 30.09 in 7.0 mi Calm Calm - N/A   Clear
2:52 AM 62.1 °F - 57.9 °F 86% 30.09 in 7.0 mi Calm Calm - N/A   Clear
3:52 AM 61.0 °F - 57.0 °F 87% 30.09 in 8.0 mi Calm Calm - N/A   Clear
4:52 AM 60.1 °F - 57.0 °F 90% 30.10 in 7.0 mi Calm Calm - N/A   Scattered Clouds
5:52 AM 63.0 °F - 59.0 °F 87% 30.11 in 7.0 mi Calm Calm - N/A   Overcast
6:52 AM 63.0 °F - 60.1 °F 90% 30.12 in 7.0 mi Calm Calm - N/A   Mostly Cloudy
7:52 AM 66.9 °F - 62.1 °F 84% 30.12 in 10.0 mi West 4.6 mph - N/A   Clear
8:52 AM 72.0 °F - 63.0 °F 73% 30.12 in 10.0 mi West 6.9 mph - N/A   Clear
9:52 AM 75.9 °F - 63.0 °F 64% 30.11 in 10.0 mi West 8.1 mph - N/A   Clear
10:52 AM 78.1 °F - 64.0 °F 62% 30.12 in 10.0 mi Variable 4.6 mph - N/A   Clear
11:52 AM 80.1 °F 81.7 °F 64.0 °F 58% 30.11 in 10.0 mi NW 8.1 mph - N/A   Mostly Cloudy
12:52 PM 80.1 °F 81.5 °F 63.0 °F 56% 30.10 in 10.0 mi Variable 5.8 mph - N/A   Partly Cloudy
1:52 PM 82.0 °F 82.4 °F 60.1 °F 47% 30.09 in 10.0 mi West 5.8 mph 17.3 mph N/A   Mostly Cloudy
2:52 PM 82.9 °F 83.3 °F 61.0 °F 47% 30.07 in 10.0 mi West 10.4 mph - N/A   Mostly Cloudy
3:52 PM 84.0 °F 84.4 °F 61.0 °F 46% 30.06 in 10.0 mi WSW 9.2 mph - N/A   Scattered Clouds
4:52 PM 84.0 °F 84.4 °F 61.0 °F 46% 30.04 in 10.0 mi West 6.9 mph - N/A   Clear
5:52 PM 82.9 °F 83.7 °F 62.1 °F 49% 30.04 in 10.0 mi West 5.8 mph - N/A   Mostly Cloudy
6:52 PM 82.0 °F 83.0 °F 62.1 °F 51% 30.04 in 10.0 mi West 5.8 mph - N/A   Partly Cloudy
7:52 PM 79.0 °F - 63.0 °F 58% 30.04 in 10.0 mi West 3.5 mph - N/A   Clear
8:52 PM 72.0 °F - 64.9 °F 78% 30.04 in 10.0 mi NE 3.5 mph - N/A   Clear
9:52 PM 71.1 °F - 66.0 °F 84% 30.04 in 10.0 mi Calm Calm - N/A   Clear
10:52 PM 70.0 °F - 66.0 °F 87% 30.03 in 10.0 mi Calm Calm - N/A   Clear
11:52 PM 68.0 °F - 64.9 °F 90% 30.01 in 10.0 mi SSE 3.5 mph - N/A   Clear